Wind_Speed
33 34 34 34 35 36 36 36 36 36 36 37 36 36 36 36 35 35 34 34 33 32 31 30 29 28 28 27 27 27 27 26 25 24 23 23 22 22 21 21 21 20 20
36 36 36 36 37 38 38 39 39 38 38 37 38 38 38 38 38 37 37 36 35 34 33 32 31 30 29 29 28 29 29 28 27 26 25 25 24 23 23 22 22 22 22
38 38 39 39 39 40 41 41 41 40 40 40 40 39 39 39 40 40 39 39 38 37 36 34 34 33 32 31 30 30 30 30 30 29 28 27 26 26 25 25 24 23 23
40 40 40 41 41 41 42 42 42 42 41 41 41 41 41 41 41 41 41 40 40 39 38 37 36 35 34 33 32 32 31 31 31 30 30 29 28 28 27 27 26 25 25
42 42 42 42 42 42 42 42 42 42 42 42 42 42 42 43 42 42 42 41 41 40 40 39 38 37 36 36 35 34 33 32 32 32 31 30 30 30 29 28 27 27 26
44 44 44 44 44 44 44 44 44 43 43 42 43 43 43 44 44 44 44 43 42 42 42 42 41 40 39 38 37 36 35 35 34 33 32 31 30 31 30 29 29 28 28
45 45 45 45 46 46 45 46 46 46 45 44 44 44 44 44 45 45 45 45 45 44 44 43 43 42 41 40 39 38 37 36 36 35 34 33 32 32 32 31 31 30 29
46 46 47 46 47 47 47 47 47 47 47 48 47 46 45 45 45 46 46 46 46 46 45 45 45 44 44 43 41 40 40 39 38 37 37 35 35 34 34 33 33 31 31
48 48 48 49 48 49 49 49 48 48 48 48 48 48 47 47 47 47 47 47 48 48 47 47 47 46 45 44 44 42 42 41 41 39 38 37 37 36 36 35 34 34 33
51 50 50 50 50 51 50 50 51 50 50 49 49 50 50 49 49 48 49 49 49 50 49 49 48 47 46 46 45 45 45 44 43 42 41 40 39 38 37 37 36 36 36
52 52 51 51 51 52 51 52 52 51 51 51 50 51 51 50 51 51 50 49 49 50 50 50 50 48 48 47 47 47 46 46 45 44 43 42 41 40 39 39 38 37 37
53 53 52 52 53 52 52 53 53 53 53 53 51 51 51 51 51 52 51 50 50 51 51 51 51 51 50 49 49 49 48 47 47 46 44 44 43 42 41 40 40 39 39
53 53 53 53 53 53 53 53 52 52 52 52 51 50 50 51 51 53 53 52 52 52 52 51 53 52 51 51 51 51 50 49 48 48 46 46 45 44 43 42 42 40 40
52 52 52 52 53 53 52 52 51 51 51 50 51 51 51 51 52 53 53 53 54 54 54 52 53 52 53 52 52 52 51 51 50 50 48 46 46 45 45 45 43 42 41
52 52 52 52 52 52 52 51 50 50 51 51 51 51 51 52 52 53 53 53 54 55 55 54 53 53 53 53 54 54 53 52 52 52 51 49 48 47 47 46 45 43 42
51 52 52 51 51 52 52 51 50 50 50 51 51 51 51 52 52 53 53 53 53 54 55 55 54 53 54 54 54 55 55 54 54 54 53 51 51 50 48 47 46 44 44
50 50 50 50 50 51 51 52 52 51 51 51 51 50 50 50 51 52 53 52 53 54 55 55 55 54 54 55 54 54 55 55 55 55 55 53 52 50 49 48 47 46 45
49 49 49 48 49 49 50 51 52 52 51 51 51 51 51 51 51 51 51 52 52 53 54 54 54 54 54 54 54 55 55 55 55 55 55 54 53 52 51 50 49 48 46
49 49 48 47 48 48 49 49 50 51 50 50 51 52 52 51 50 50 51 50 51 53 54 54 54 54 53 53 54 54 55 56 55 55 55 55 54 53 52 51 51 50 49
48 48 47 47 47 48 48 47 48 49 49 48 49 49 50 51 50 50 51 50 50 52 53 54 54 54 53 52 52 52 53 54 54 55 55 56 54 53 53 52 51 52 51
47 47 46 47 46 46 47 47 46 46 47 46 46 47 49 50 50 50 51 50 50 50 51 52 52 53 52 52 52 52 52 52 53 53 55 56 55 54 52 53 53 53 52
46 46 45 45 45 44 44 45 45 44 44 45 45 46 47 48 48 49 50 50 49 49 50 50 50 51 51 52 52 52 52 53 53 53 54 55 56 54 53 53 53 53 53
45 45 45 44 44 44 43 43 43 43 44 45 44 44 45 47 47 48 49 49 48 48 47 47 48 48 48 49 51 52 52 52 54 54 54 54 54 54 54 53 52 52 53
43 43 43 43 43 43 43 43 43 42 42 43 43 43 43 44 46 47 47 47 46 46 45 46 47 47 47 47 48 49 50 51 52 53 54 53 53 53 53 53 53 53 52
41 41 40 40 40 40 40 41 41 41 41 42 42 42 41 42 43 45 45 45 45 45 45 45 46 46 46 47 47 47 48 50 50 51 51 52 52 53 53 53 53 52 52
39 38 38 37 37 37 38 39 40 40 40 40 40 41 40 40 41 43 43 43 43 43 43 43 44 45 45 45 46 46 46 48 49 49 49 50 51 52 52 52 51 51 51
Wind_Direction
271 271 271 271 271 271 270 269 269 268 266 263 260 259 258 256 254 253 253 252 252 251 250 250 250 251 249 249 248 247 247 247 248 249 248 250 252 253 254 256 258 258 259
272 272 272 272 272 272 271 270 269 268 266 264 262 260 258 256 254 253 252 251 251 250 249 249 249 249 249 249 250 248 247 247 248 249 249 249 250 252 253 255 257 258 259
274 272 272 272 272 271 271 270 269 267 265 264 262 260 258 256 254 253 252 250 250 249 249 249 248 248 249 250 251 250 249 248 248 249 251 251 252 252 253 255 256 258 260
276 274 273 272 272 271 270 269 267 266 265 263 262 261 258 256 254 252 251 249 248 248 248 249 248 248 249 249 251 250 249 249 249 249 251 252 253 254 254 255 255 257 260
275 275 274 272 271 270 268 267 267 266 265 263 262 260 258 256 253 250 249 249 248 247 247 248 248 248 248 249 250 249 248 248 249 249 250 252 253 254 254 254 255 257 259
275 275 274 272 270 269 268 267 266 267 265 263 262 261 259 257 253 250 248 248 248 247 247 247 248 248 248 248 249 249 248 248 248 249 250 251 252 253 254 254 255 257 258
275 274 272 272 270 268 268 268 267 266 265 263 262 261 259 257 253 250 248 247 247 247 247 247 247 248 248 248 249 249 247 247 248 249 250 250 251 253 254 254 256 257 258
274 273 272 271 269 268 267 267 266 266 264 263 262 261 259 256 253 250 248 246 246 246 247 247 247 248 248 247 248 248 247 247 248 248 249 250 251 253 254 255 256 257 258
274 272 271 270 269 267 266 266 266 266 264 263 262 260 258 255 252 250 248 247 246 246 246 247 247 247 247 248 248 248 247 247 247 248 249 251 251 252 253 255 256 256 257
273 273 271 270 267 267 266 265 265 264 263 262 261 260 257 255 251 249 248 247 246 247 246 246 246 246 248 249 249 248 247 247 247 248 250 251 251 252 252 253 255 256 257
273 273 271 269 267 266 265 264 263 264 263 261 260 259 256 254 253 250 247 247 247 247 247 246 246 246 248 249 249 248 248 247 247 248 249 250 251 251 252 252 254 255 257
274 273 270 269 268 266 265 265 264 264 262 261 260 259 256 254 253 251 249 249 248 247 246 246 246 247 248 248 248 247 247 247 247 247 248 249 249 249 250 251 253 254 257
275 274 271 269 268 267 266 265 264 263 261 260 259 257 255 254 252 251 251 250 248 246 246 246 247 247 248 248 247 247 246 246 246 246 247 247 248 248 248 250 252 254 256
276 275 272 269 267 266 265 265 264 262 260 259 258 256 255 254 252 252 252 251 249 246 246 246 247 248 248 247 246 246 245 246 245 245 246 246 246 247 248 250 251 253 254
276 274 273 270 267 265 265 265 264 262 259 258 257 255 255 254 252 252 252 251 250 247 246 246 246 247 247 246 246 246 246 246 245 245 245 245 246 247 248 248 249 251 253
278 275 273 272 269 266 265 264 263 262 259 258 257 256 255 253 252 251 251 251 250 249 247 246 246 247 246 246 246 247 247 246 246 245 246 245 245 246 246 247 248 250 252
278 276 274 272 270 268 266 264 263 261 259 258 257 256 255 254 253 251 250 250 250 249 248 246 247 247 247 246 247 247 247 246 245 244 245 245 245 244 245 247 248 250 252
279 277 274 273 271 269 267 265 263 261 259 258 256 255 254 253 253 252 251 250 250 249 249 247 247 247 247 247 247 246 246 246 246 245 246 245 245 245 246 247 248 250 252
279 277 275 273 271 269 267 264 262 260 259 259 258 256 254 253 252 252 251 250 250 250 249 248 248 248 248 248 248 246 246 246 246 245 245 245 245 245 246 248 249 249 251
279 277 274 272 271 269 268 265 263 261 259 259 258 256 254 252 252 251 251 250 250 250 249 249 248 248 248 248 248 247 246 246 245 245 244 244 244 246 246 247 248 249 251
279 277 276 274 272 269 267 265 263 261 259 258 258 256 254 252 251 251 250 249 250 249 249 249 249 248 247 247 248 247 246 245 244 244 244 244 244 245 245 246 247 249 250
280 277 275 273 271 269 267 266 263 260 259 258 256 255 253 252 251 250 249 249 249 249 249 248 248 247 247 247 247 248 247 245 244 244 244 244 243 243 245 246 246 248 249
280 278 275 273 271 269 267 266 264 261 259 257 255 253 252 251 250 250 249 249 249 249 247 246 246 246 246 247 248 248 247 246 245 245 244 244 243 244 244 245 245 247 249
281 279 275 272 270 267 266 265 263 261 259 257 255 252 251 250 249 248 248 248 247 246 245 245 245 245 244 245 247 248 247 246 246 246 245 244 244 244 243 244 246 248 249
284 280 276 272 270 268 265 264 262 261 260 258 256 254 251 250 248 247 246 246 245 244 244 245 245 245 245 246 247 247 247 246 246 246 246 246 245 244 244 245 246 248 249
285 282 277 272 270 267 265 264 263 261 260 258 256 254 252 250 247 245 244 244 243 243 243 244 244 245 246 247 247 248 247 247 246 246 246 246 244 244 245 245 246 247 249
Height
5772 5772 5772 5772 5772 5772 5772 5773 5773 5774 5775 5775 5777 5778 5780 5782 5784 5786 5788 5790 5792 5794 5796 5798 5800 5802 5803 5805 5807 5808 5810 5812 5813 5815 5816 5818 5819 5820 5821 5822 5823 5824 5825
5763 5763 5763 5763 5762 5762 5763 5763 5763 5764 5765 5766 5767 5769 5770 5772 5775 5777 5780 5782 5784 5786 5789 5791 5793 5795 5797 5798 5800 5802 5804 5806 5808 5809 5811 5812 5814 5815 5816 5817 5818 5819 5820
5753 5753 5753 5753 5752 5752 5752 5752 5752 5753 5754 5755 5757 5758 5760 5762 5765 5768 5770 5773 5775 5778 5780 5783 5785 5787 5790 5792 5793 5795 5797 5799 5801 5803 5805 5806 5808 5809 5811 5812 5813 5814 5815
5743 5742 5742 5742 5741 5740 5740 5741 5741 5742 5743 5744 5746 5748 5750 5752 5755 5757 5760 5763 5766 5769 5771 5774 5777 5780 5782 5784 5786 5788 5790 5792 5794 5796 5798 5800 5801 5803 5805 5806 5807 5808 5809
5732 5731 5730 5729 5729 5729 5729 5729 5730 5731 5732 5733 5735 5737 5739 5741 5744 5747 5750 5753 5756 5759 5762 5765 5768 5771 5773 5776 5778 5780 5783 5784 5787 5789 5791 5793 5795 5796 5798 5800 5801 5802 5803
5719 5719 5718 5717 5717 5717 5717 5717 5718 5719 5720 5721 5723 5725 5727 5730 5732 5735 5739 5742 5745 5749 5752 5755 5758 5761 5764 5767 5769 5772 5774 5776 5779 5781 5783 5785 5788 5789 5791 5793 5794 5795 5797
5706 5706 5705 5705 5705 5705 5705 5705 5706 5707 5708 5709 5711 5713 5715 5718 5720 5724 5727 5731 5734 5738 5741 5745 5748 5751 5755 5757 5760 5763 5765 5768 5770 5773 5775 5777 5780 5782 5784 5786 5787 5788 5790
5693 5692 5692 5692 5692 5692 5692 5693 5693 5694 5696 5697 5699 5700 5703 5707 5709 5712 5715 5719 5723 5726 5730 5734 5737 5741 5744 5747 5750 5753 5756 5758 5761 5763 5766 5769 5771 5774 5776 5778 5779 5781 5782
5679 5678 5678 5678 5678 5679 5679 5679 5680 5681 5683 5684 5685 5688 5690 5694 5697 5700 5703 5707 5710 5714 5718 5722 5726 5729 5733 5736 5740 5743 5745 5748 5750 5754 5757 5760 5762 5765 5767 5769 5771 5773 5774
5664 5664 5664 5664 5664 5664 5665 5666 5666 5667 5669 5670 5672 5674 5677 5680 5683 5688 5691 5694 5698 5701 5706 5709 5713 5717 5721 5725 5728 5731 5734 5737 5740 5744 5747 5750 5753 5755 5758 5760 5762 5764 5766
5650 5649 5649 5648 5649 5649 5650 5651 5652 5653 5654 5656 5658 5660 5662 5665 5668 5673 5678 5682 5685 5688 5692 5696 5700 5705 5708 5712 5716 5719 5722 5726 5729 5733 5736 5739 5743 5746 5748 5751 5753 5755 5756
5635 5634 5633 5633 5633 5634 5635 5636 5637 5638 5639 5641 5643 5645 5648 5651 5655 5658 5663 5668 5671 5676 5679 5682 5687 5691 5695 5699 5703 5706 5710 5714 5718 5721 5725 5728 5732 5735 5738 5740 5743 5745 5747
5620 5619 5618 5618 5618 5618 5619 5620 5622 5623 5624 5626 5628 5631 5633 5637 5640 5643 5648 5652 5657 5662 5666 5669 5673 5677 5682 5685 5689 5693 5697 5701 5705 5709 5713 5717 5720 5723 5727 5730 5732 5734 5737
5606 5604 5603 5602 5603 5603 5604 5605 5607 5608 5609 5611 5613 5616 5619 5622 5625 5629 5633 5637 5642 5647 5652 5656 5660 5663 5667 5671 5675 5679 5683 5688 5692 5697 5701 5704 5708 5712 5715 5719 5721 5724 5727
5591 5589 5588 5587 5587 5588 5589 5590 5592 5593 5595 5597 5599 5601 5604 5607 5610 5614 5618 5622 5627 5632 5638 5642 5645 5649 5652 5657 5661 5665 5670 5675 5679 5683 5687 5692 5696 5700 5703 5707 5710 5712 5715
5576 5574 5573 5572 5572 5573 5574 5575 5576 5578 5580 5582 5584 5587 5590 5593 5595 5599 5603 5607 5611 5616 5621 5627 5630 5634 5638 5642 5646 5651 5655 5660 5665 5669 5674 5678 5683 5687 5691 5695 5698 5701 5704
5561 5560 5559 5558 5557 5558 5558 5560 5561 5563 5565 5567 5570 5572 5575 5578 5581 5584 5588 5592 5595 5600 5605 5611 5615 5619 5623 5627 5631 5636 5640 5645 5650 5655 5660 5665 5670 5674 5678 5682 5686 5690 5693
5546 5545 5544 5543 5543 5543 5543 5544 5546 5548 5550 5552 5555 5557 5561 5563 5566 5570 5573 5577 5581 5585 5590 5595 5600 5604 5608 5612 5616 5620 5625 5630 5635 5640 5645 5651 5656 5661 5665 5669 5674 5677 5680
5532 5530 5529 5529 5529 5528 5528 5529 5531 5533 5535 5537 5540 5542 5546 5549 5552 5555 5558 5562 5566 5570 5574 5579 5585 5588 5592 5596 5600 5605 5609 5614 5619 5624 5630 5636 5642 5647 5652 5656 5660 5664 5668
5517 5515 5515 5514 5514 5514 5514 5515 5516 5518 5520 5522 5525 5527 5530 5534 5538 5541 5544 5548 5551 5555 5559 5564 5569 5573 5576 5581 5585 5589 5594 5599 5604 5609 5615 5621 5627 5632 5638 5643 5647 5651 5654
5503 5501 5501 5500 5500 5500 5500 5500 5502 5504 5506 5508 5510 5513 5516 5519 5523 5526 5530 5533 5537 5541 5545 5549 5553 5558 5562 5566 5571 5575 5579 5584 5589 5594 5600 5607 5613 5619 5623 5628 5632 5636 5640
5489 5488 5487 5486 5486 5486 5486 5486 5488 5490 5492 5494 5497 5499 5502 5505 5508 5512 5515 5519 5523 5526 5531 5535 5539 5544 5548 5552 5556 5560 5565 5570 5577 5583 5585 5591 5596 5602 5608 5613 5617 5622 5626
5475 5474 5473 5473 5472 5472 5473 5473 5474 5476 5479 5481 5483 5485 5488 5491 5495 5498 5502 5505 5509 5512 5517 5521 5526 5530 5535 5539 5543 5548 5551 5555 5562 5567 5570 5576 5582 5587 5593 5598 5603 5607 5611
5462 5460 5459 5459 5459 5459 5460 5461 5462 5464 5465 5467 5469 5472 5475 5478 5481 5485 5488 5492 5496 5500 5504 5508 5513 5518 5521 5525 5529 5533 5537 5542 5547 5552 5557 5563 5568 5573 5578 5583 5588 5593 5597
5449 5447 5446 5446 5446 5446 5447 5448 5449 5451 5454 5455 5457 5459 5462 5465 5468 5472 5476 5480 5484 5488 5491 5495 5499 5503 5508 5512 5516 5520 5524 5529 5534 5539 5543 5548 5554 5559 5564 5569 5574 5578 5583
5437 5435 5434 5434 5434 5435 5435 5436 5438 5440 5442 5444 5446 5448 5450 5453 5455 5459 5463 5467 5471 5475 5479 5483 5487 5491 5495 5499 5503 5507 5511 5516 5520 5526 5530 5535 5540 5545 5550 5556 5560 5565 5569